Location: ?p Thanh B�nh
(16.5833°N, 107.5333°E)
Time: 07:12:55
(UTC+00:00)

Landsat 5 - Pass Details

Date: 29 October 2020
Orbit: 529 x 653 km, 98.2° (Epoch: 02 December)

Event Time Altitude Azimuth Distance (km) Brightness Sun altitude
Rises 21:22:19 0° 179° (S) 2,812 7.1 -20.7°
Reaches altitude 10° 21:24:34 10° 185° (S) 1,891 6.1 -20.1°
Enters shadow 21:28:29 45° 258° (WSW) 769 3.6 -19.2°
